Flag for Japan Weather past 2 weeks in Himeji, Japan

Now
72 °F

Passing clouds.


Feels Like: 75 °F
Forecast: 50 / 72 °F
Wind: 7 mph from North

Location: Osaka International Airport


UV Index: 7 (High)

Visibility: N/A


Pressure: 30.24 "Hg

Humidity: 22%

Dew point: 30 °F

Location of HimejiLocation

Historic Weather in Himeji

°F

Himeji temperature yesterday

Maximum temperature yesterday: 75 °F (at 3:00 PM)
Minimum temperature yesterday: 46 °F (at 5:00 AM)
Average temperature yesterday: 64 °F

Past Weeks' High & Low Weather Summary

 TemperatureHumidityPressure
High75 °F (Apr 17, 2:00 PM)88% (Apr 18, 6:00 AM)30.27 "Hg (Apr 18, 6:00 AM)
Low41 °F (Apr 12, 5:00 AM)12% (Apr 24, 3:00 PM)29.83 "Hg (Apr 18, 2:00 PM)
Average60 °F42%30.02 "Hg
* Reported Apr 10 11:00 AM — Apr 25 11:00 AM, Himeji, Weather by CustomWeather, © 2014

Note: Actual official high and low records may vary slightly from our data, if they occured in-between our weather recording intervals... More about our weather records

Advertising

Historic Weather Conditions — Data for Previous 24 hours

 ConditionsComfort  
Time TempWeatherWind HumidityBarometerVisibility
11:00 AM
Apr 25
70 °FPassing clouds.2 mph33%30.27 "HgN/A
10:00 AM68 °FPassing clouds.5 mph38%30.27 "HgN/A
9:00 AM64 °FPassing clouds.6 mph43%30.27 "HgN/A
8:00 AM61 °FPassing clouds.6 mph48%30.27 "HgN/A
7:00 AM55 °FSunny.5 mph59%30.27 "Hg10 mi
6:00 AM50 °FSunny.3 mph62%30.27 "Hg10 mi
5:00 AM48 °FClear.5 mph66%30.24 "Hg10 mi
8:00 PM
Apr 24
63 °FPassing clouds.9 mph34%30.21 "HgN/A
7:00 PM63 °FPassing clouds.12 mph32%30.18 "HgN/A
6:00 PM66 °FPassing clouds.14 mph21%30.15 "HgN/A
5:00 PM70 °FPassing clouds.12 mph18%30.15 "HgN/A
4:00 PM73 °FScattered clouds.6 mph13%30.12 "HgN/A
3:00 PM75 °FScattered clouds.2 mph12%30.12 "HgN/A
2:00 PM73 °FScattered clouds.7 mph13%30.15 "HgN/A
1:00 PM73 °FPartly sunny.7 mph14%30.15 "HgN/A
12:00 PM68 °FPassing clouds.5 mph21%30.18 "HgN/A
Weather by CustomWeather, © 2014

See weather overview